Home   Weather   Newmarket   Past weeks

Flag for Canada Past Weather in Newmarket, Ontario, Canada — Yesterday and Last 2 Weeks

Now
64 °F

Overcast.


Feels Like: 64 °F
Forecast: 60 / 78 °F
Wind: 7 mph from Southwest

Location: Borden

Current Time: Jul 27, 2017 at 12:56:19 am

Latest Report: Jul 26, 2017 at 11:00 pm


Visibility: 9 mi

Pressure: 29.98 "Hg

Humidity: 88%

Dew Point: 61 °F

Location of NewmarketLocation

Past Weather in Newmarket — Graph

°F

Newmarket Temperature Yesterday

Maximum temperature yesterday: 73 °F (at 4:00 pm)
Minimum temperature yesterday: 48 °F (at 6:00 am)
Average temperature yesterday: 62 °F

High & Low Weather Summary for the Past Weeks

 TemperatureHumidityPressure
High82 °F (Jul 12, 3:00 pm)100% (Jul 12, 12:19 am)30.22 "Hg (Jul 12, 12:19 am)
Low48 °F (Jul 26, 6:00 am)45% (Jul 21, 3:00 pm)29.73 "Hg (Jul 24, 4:00 am)
Average66 °F86%29.97 "Hg
* Reported Jul 11 11:00 pm — Jul 26 11:00 pm, Newmarket. Weather by CustomWeather, © 2017

Note: Actual official high and low records may vary slightly from our data, if they occured in-between our weather recording intervals... More about our weather records

Advertising

Newmarket Weather History for the Previous 24 Hours

Scroll right to see more
 ConditionsComfort  
Time TempWeatherWind HumidityBarometerVisibility
11:00 pm
Wed, Jul 26
64 °FOvercast.7 mph88%29.98 "Hg9 mi
10:00 pm64 °FOvercast.7 mph88%30.01 "Hg9 mi
9:00 pm64 °FOvercast.8 mph88%30.00 "Hg9 mi
8:00 pm64 °FLight rain. Passing clouds.7 mph88%30.00 "Hg9 mi
7:32 pm64 °FLight rain. Passing clouds.10 mph94%30.00 "Hg9 mi
5:43 pm72 °FLight rain. Overcast.3 mph69%30.11 "Hg9 mi
5:00 pm72 °FOvercast.7 mph69%30.06 "Hg9 mi
4:00 pm73 °FPartly sunny.7 mph65%30.07 "Hg9 mi
3:00 pm72 °FPassing clouds.8 mph65%30.08 "Hg9 mi
2:00 pm72 °FPassing clouds.7 mph65%30.10 "Hg9 mi
1:00 pm68 °FLight rain. Passing clouds.7 mph78%30.10 "Hg9 mi
10:00 am70 °FSunny.8 mph69%30.17 "Hg9 mi
9:00 am66 °FSunny.7 mph78%30.16 "Hg9 mi
7:00 am57 °FSunny.2 mph94%30.19 "Hg9 mi
6:00 am48 °FSunny.3 mph100%30.20 "Hg6 mi
5:00 am52 °FClear.5 mph100%30.20 "Hg9 mi
4:00 am50 °FClear.5 mph94%30.19 "Hg2 mi
3:40 am50 °FClear.2 mph100%30.21 "Hg1 mi
3:04 am50 °FClear.No wind100%30.21 "Hg2 mi
2:00 am52 °FClear.No wind100%30.22 "Hg9 mi
1:00 am57 °FClear.5 mph94%30.20 "Hg9 mi
12:00 am55 °FClear.3 mph100%30.21 "Hg9 mi
Weather by CustomWeather, © 2017

See weather overviewHow to use our weather pages